LVKKW SGAS-SARC

Flight info

Callsign LVKKW
Flight time N/A
Altitude 18000
Route ARPAS ARPAS A428 DIGET DIGET1V
Aircraft BE20/L-SDFGR/G

Departure

Time 2026-04-25 02:07
Airport Silvio Pettirossi International Airport (SGAS)

Arrival

Time N/A
Airport Corrientes Airport (SARC)
Time Latitude Longitude Altitude Speed Heading
2026-04-25 01:49 -25.25369 -57.51779 312 ft 0 kts 200°
2026-04-25 01:59 -25.25370 -57.51780 312 ft 3 kts 204°
2026-04-25 01:59 -25.25317 -57.51781 310 ft 10 kts 14°
2026-04-25 02:00 -25.25260 -57.51781 309 ft 7 kts 12°
2026-04-25 02:00 -25.25194 -57.51752 307 ft 13 kts 24°
2026-04-25 02:00 -25.25090 -57.51706 305 ft 18 kts 24°
2026-04-25 02:00 -25.24970 -57.51648 304 ft 18 kts 25°
2026-04-25 02:01 -25.24870 -57.51604 304 ft 15 kts 23°
2026-04-25 02:01 -25.24767 -57.51591 301 ft 16 kts 325°
2026-04-25 02:01 -25.24668 -57.51682 293 ft 19 kts 309°
2026-04-25 02:01 -25.24632 -57.51811 287 ft 14 kts 284°
2026-04-25 02:02 -25.24585 -57.51842 284 ft 11 kts
2026-04-25 02:02 -25.24481 -57.51815 282 ft 19 kts
2026-04-25 02:02 -25.24330 -57.51782 280 ft 24 kts 11°
2026-04-25 02:02 -25.24162 -57.51739 278 ft 24 kts 12°
2026-04-25 02:03 -25.23997 -57.51701 277 ft 23 kts 13°
2026-04-25 02:03 -25.23835 -57.51659 275 ft 23 kts 11°
2026-04-25 02:03 -25.23673 -57.51619 272 ft 23 kts 11°
2026-04-25 02:03 -25.23511 -57.51580 270 ft 23 kts 12°
2026-04-25 02:04 -25.23349 -57.51542 268 ft 23 kts 14°
2026-04-25 02:04 -25.23193 -57.51501 266 ft 23 kts
2026-04-25 02:04 -25.23032 -57.51464 265 ft 23 kts 14°
2026-04-25 02:04 -25.22911 -57.51432 264 ft 9 kts
2026-04-25 02:05 -25.22825 -57.51414 263 ft 16 kts 13°
2026-04-25 02:05 -25.22694 -57.51387 261 ft 21 kts 10°
2026-04-25 02:05 -25.22562 -57.51387 259 ft 17 kts 301°
2026-04-25 02:05 -25.22537 -57.51473 256 ft 0 kts 280°
2026-04-25 02:06 -25.22537 -57.51477 256 ft 3 kts 279°
2026-04-25 02:06 -25.22527 -57.51541 254 ft 13 kts 270°
2026-04-25 02:06 -25.22593 -57.51574 255 ft 6 kts 195°
2026-04-25 02:06 -25.22626 -57.51582 255 ft 31 kts 190°
2026-04-25 02:07 -25.23191 -57.51718 266 ft 122 kts 194°
2026-04-25 02:07 -25.24083 -57.51990 756 ft 141 kts 200°
2026-04-25 02:07 -25.25014 -57.52330 1493 ft 145 kts 196°
2026-04-25 02:07 -25.25935 -57.52669 2225 ft 144 kts 205°
2026-04-25 02:08 -25.26923 -57.53019 2681 ft 158 kts 188°
2026-04-25 02:08 -25.28003 -57.53183 3353 ft 155 kts 188°
2026-04-25 02:08 -25.29056 -57.53386 3979 ft 158 kts 192°
2026-04-25 02:08 -25.30150 -57.53599 4654 ft 161 kts 189°
2026-04-25 02:09 -25.31253 -57.53799 5315 ft 162 kts 189°
2026-04-25 02:09 -25.32356 -57.54002 5919 ft 164 kts 190°
2026-04-25 02:09 -25.33485 -57.54210 6496 ft 166 kts 191°
2026-04-25 02:09 -25.34484 -57.54797 7018 ft 168 kts 232°
2026-04-25 02:10 -25.34927 -57.55961 7547 ft 169 kts 256°
2026-04-25 02:10 -25.35191 -57.57231 8091 ft 171 kts 259°
2026-04-25 02:10 -25.35432 -57.58512 8611 ft 173 kts 260°
2026-04-25 02:10 -25.35682 -57.59811 9112 ft 175 kts 256°
2026-04-25 02:11 -25.36265 -57.60999 9587 ft 181 kts 231°
2026-04-25 02:11 -25.37246 -57.61879 10051 ft 185 kts 217°
2026-04-25 02:11 -25.38324 -57.62651 10516 ft 186 kts 216°
2026-04-25 02:11 -25.39429 -57.63422 10978 ft 187 kts 216°
2026-04-25 02:12 -25.40528 -57.64191 11430 ft 187 kts 216°
2026-04-25 02:12 -25.41617 -57.64951 11882 ft 187 kts 217°
2026-04-25 02:12 -25.42716 -57.65722 12337 ft 186 kts 218°
2026-04-25 02:12 -25.43793 -57.66484 12778 ft 185 kts 218°
2026-04-25 02:13 -25.44878 -57.67256 13219 ft 185 kts 219°
2026-04-25 02:13 -25.45955 -57.68023 13636 ft 185 kts 219°
2026-04-25 02:13 -25.47046 -57.68801 14039 ft 186 kts 219°
2026-04-25 02:13 -25.48137 -57.69579 14433 ft 187 kts 219°
2026-04-25 02:14 -25.49227 -57.70356 14804 ft 188 kts 220°
2026-04-25 02:14 -25.50336 -57.71151 15162 ft 189 kts 220°
2026-04-25 02:14 -25.51442 -57.71940 15508 ft 190 kts 220°
2026-04-25 02:14 -25.52545 -57.72728 15844 ft 190 kts 220°
2026-04-25 02:15 -25.53669 -57.73531 16169 ft 191 kts 220°
2026-04-25 02:15 -25.54775 -57.74321 16475 ft 191 kts 221°
2026-04-25 02:15 -25.55904 -57.75127 16781 ft 192 kts 221°
2026-04-25 02:15 -25.57025 -57.75928 17077 ft 192 kts 221°
2026-04-25 02:16 -25.58149 -57.76731 17372 ft 193 kts 221°
2026-04-25 02:16 -25.59276 -57.77537 17661 ft 194 kts 221°
2026-04-25 02:16 -25.60409 -57.78348 17937 ft 195 kts 221°
2026-04-25 02:16 -25.61584 -57.79195 18035 ft 208 kts 221°
2026-04-25 02:17 -25.62836 -57.80100 18050 ft 223 kts 221°
2026-04-25 02:17 -25.64192 -57.81075 18050 ft 237 kts 220°
2026-04-25 02:17 -25.65611 -57.82091 18047 ft 248 kts 220°
2026-04-25 02:17 -25.67088 -57.83148 18045 ft 259 kts 220°
2026-04-25 02:18 -25.68623 -57.84244 18037 ft 267 kts 220°
2026-04-25 02:18 -25.70223 -57.85387 18036 ft 274 kts 220°
2026-04-25 02:18 -25.71843 -57.86545 18035 ft 280 kts 220°
2026-04-25 02:18 -25.73489 -57.87723 18034 ft 285 kts 219°
2026-04-25 02:19 -25.75172 -57.88931 18033 ft 289 kts 219°
2026-04-25 02:19 -25.76871 -57.90155 18029 ft 289 kts 220°
2026-04-25 02:19 -25.78540 -57.91362 18028 ft 286 kts 220°
2026-04-25 02:19 -25.80201 -57.92567 18028 ft 285 kts 220°
2026-04-25 02:20 -25.81859 -57.93771 18030 ft 283 kts 220°
2026-04-25 02:20 -25.83516 -57.94976 18032 ft 282 kts 220°
2026-04-25 02:20 -25.85143 -57.96160 18034 ft 281 kts 220°
2026-04-25 02:20 -25.86767 -57.97344 18036 ft 280 kts 220°
2026-04-25 02:21 -25.88412 -57.98542 18038 ft 279 kts 220°
2026-04-25 02:21 -25.90045 -57.99732 18039 ft 279 kts 220°
2026-04-25 02:21 -25.91650 -58.00904 18040 ft 278 kts 220°
2026-04-25 02:21 -25.93271 -58.02086 18041 ft 278 kts 220°
2026-04-25 02:22 -25.94892 -58.03269 18042 ft 278 kts 220°
2026-04-25 02:22 -25.96505 -58.04446 18042 ft 278 kts 220°
2026-04-25 02:22 -25.98115 -58.05621 18043 ft 277 kts 220°
2026-04-25 02:22 -25.99745 -58.06812 18044 ft 277 kts 220°
2026-04-25 02:23 -26.01344 -58.07981 18047 ft 277 kts 220°
2026-04-25 02:23 -26.02964 -58.09165 18048 ft 277 kts 220°
2026-04-25 02:23 -26.04586 -58.10352 18049 ft 277 kts 220°
2026-04-25 02:23 -26.06184 -58.11520 18050 ft 277 kts 220°
2026-04-25 02:24 -26.07813 -58.12712 18045 ft 277 kts 220°
2026-04-25 02:24 -26.09430 -58.13895 18042 ft 277 kts 220°
2026-04-25 02:24 -26.11036 -58.15070 18039 ft 277 kts 220°
2026-04-25 02:24 -26.12645 -58.16249 18039 ft 276 kts 220°
2026-04-25 02:25 -26.14259 -58.17431 18042 ft 276 kts 220°
2026-04-25 02:25 -26.15850 -58.18597 18043 ft 276 kts 220°
2026-04-25 02:25 -26.17459 -58.19776 18043 ft 276 kts 220°
2026-04-25 02:25 -26.19059 -58.20949 18043 ft 275 kts 220°
2026-04-25 02:26 -26.20653 -58.22118 18044 ft 275 kts 220°
2026-04-25 02:26 -26.22273 -58.23288 18044 ft 276 kts 219°
2026-04-25 02:26 -26.23926 -58.24405 18044 ft 277 kts 218°
2026-04-25 02:26 -26.25572 -58.25486 18044 ft 277 kts 217°
2026-04-25 02:27 -26.27245 -58.26577 18044 ft 277 kts 217°
2026-04-25 02:27 -26.28913 -58.27668 18043 ft 277 kts 218°
2026-04-25 02:27 -26.30563 -58.28753 18043 ft 277 kts 218°
2026-04-25 02:27 -26.32231 -58.29856 18043 ft 276 kts 218°
2026-04-25 02:28 -26.33873 -58.30946 18043 ft 276 kts 218°
2026-04-25 02:28 -26.35538 -58.32053 18042 ft 276 kts 218°
2026-04-25 02:28 -26.37180 -58.33145 18042 ft 276 kts 218°
2026-04-25 02:28 -26.38841 -58.34252 18041 ft 276 kts 218°
2026-04-25 02:29 -26.40482 -58.35347 18042 ft 276 kts 218°
2026-04-25 02:29 -26.42145 -58.36457 18041 ft 276 kts 218°
2026-04-25 02:29 -26.43789 -58.37555 18041 ft 276 kts 218°
2026-04-25 02:29 -26.45446 -58.38662 18040 ft 276 kts 218°
2026-04-25 02:30 -26.47083 -58.39755 18039 ft 276 kts 218°
2026-04-25 02:30 -26.48736 -58.40860 18037 ft 276 kts 218°
2026-04-25 02:30 -26.50385 -58.41962 18036 ft 276 kts 218°
2026-04-25 02:30 -26.52030 -58.43061 18035 ft 276 kts 218°
2026-04-25 02:31 -26.53692 -58.44173 18034 ft 276 kts 218°
2026-04-25 02:31 -26.55342 -58.45277 18033 ft 276 kts 218°
2026-04-25 02:31 -26.56988 -58.46379 18032 ft 276 kts 218°
2026-04-25 02:31 -26.58642 -58.47486 18031 ft 276 kts 218°
2026-04-25 02:32 -26.60280 -58.48582 18029 ft 276 kts 218°
2026-04-25 02:32 -26.61926 -58.49685 18028 ft 276 kts 218°
2026-04-25 02:32 -26.63580 -58.50793 18027 ft 276 kts 218°
2026-04-25 02:32 -26.65233 -58.51901 18026 ft 276 kts 218°
2026-04-25 02:33 -26.66880 -58.53006 18026 ft 276 kts 218°
2026-04-25 02:33 -26.68514 -58.54102 18025 ft 276 kts 218°
2026-04-25 02:33 -26.70164 -58.55209 18024 ft 276 kts 218°
2026-04-25 02:33 -26.71822 -58.56322 18024 ft 275 kts 218°
2026-04-25 02:34 -26.73454 -58.57418 18023 ft 275 kts 218°
2026-04-25 02:34 -26.75108 -58.58529 18022 ft 275 kts 218°
2026-04-25 02:34 -26.76753 -58.59635 18022 ft 275 kts 218°
2026-04-25 02:34 -26.78398 -58.60741 18022 ft 275 kts 218°
2026-04-25 02:35 -26.80028 -58.61837 18022 ft 275 kts 218°
2026-04-25 02:35 -26.81667 -58.62940 18022 ft 275 kts 218°
2026-04-25 02:35 -26.83316 -58.64049 18022 ft 275 kts 218°
2026-04-25 02:35 -26.84962 -58.65157 18022 ft 274 kts 218°
2026-04-25 02:36 -26.86586 -58.66251 18030 ft 275 kts 218°
2026-04-25 02:36 -26.88229 -58.67359 18031 ft 275 kts 218°
2026-04-25 02:36 -26.89880 -58.68471 18031 ft 275 kts 218°
2026-04-25 02:36 -26.91525 -58.69581 18031 ft 275 kts 218°
2026-04-25 02:37 -26.93161 -58.70684 18031 ft 275 kts 218°
2026-04-25 02:37 -26.94813 -58.71805 18009 ft 276 kts 219°
2026-04-25 02:37 -26.96445 -58.72916 18006 ft 276 kts 219°
2026-04-25 02:37 -26.98092 -58.74034 18005 ft 276 kts 219°
2026-04-25 02:38 -26.99733 -58.75146 18005 ft 276 kts 218°
2026-04-25 02:38 -27.01474 -58.76099 17990 ft 286 kts 202°
2026-04-25 02:38 -27.03522 -58.76134 17896 ft 305 kts 178°
2026-04-25 02:38 -27.05617 -58.75583 17889 ft 307 kts 171°
2026-04-25 02:39 -27.07595 -58.74933 17664 ft 291 kts 170°
2026-04-25 02:39 -27.09535 -58.74290 17090 ft 291 kts 171°
2026-04-25 02:39 -27.11468 -58.73671 16453 ft 292 kts 171°
2026-04-25 02:39 -27.13427 -58.73059 15742 ft 295 kts 171°
2026-04-25 02:40 -27.15417 -58.72446 14928 ft 298 kts 171°
2026-04-25 02:40 -27.17419 -58.72038 14068 ft 291 kts 188°
2026-04-25 02:40 -27.19391 -58.72308 13313 ft 284 kts 195°
2026-04-25 02:40 -27.21329 -58.72594 12583 ft 281 kts 194°
2026-04-25 02:41 -27.23273 -58.72879 11849 ft 278 kts 194°
2026-04-25 02:41 -27.25170 -58.73160 11125 ft 274 kts 194°
2026-04-25 02:41 -27.26423 -58.73349 10642 ft 272 kts 194°
2026-04-25 02:41 -27.27029 -58.73453 10403 ft 270 kts 197°